This is the latest recevied weather packets stored in our database for station/object W0AKO. If no packets are shown the sender has not sent any weather packets the latest 10 day(s).
| Time | Temp. | Humidity | Pressure | Rain* | Wind** | Luminosity | Snow |
|---|---|---|---|---|---|---|---|
| 1777594356 | 26.67° C | 10% | 1011.4 hPa | 0 mm | - | 65 W/m² | - |
| 1777594052 | 27.22° C | 10% | 1011 hPa | 0 mm | - | 230 W/m² | - |
| 1777593747 | 26.67° C | 10% | 1011.4 hPa | 0 mm | - | 251 W/m² | - |
| 1777593444 | 27.22° C | 10% | 1011 hPa | 0 mm | - | 268 W/m² | - |
| 1777593142 | 26.67° C | 10% | 1011.4 hPa | 0 mm | - | 277 W/m² | - |
| 1777592841 | 26.67° C | 10% | 1011.3 hPa | 0 mm | - | 276 W/m² | - |
| 1777592539 | 26.67° C | 10% | 1011.3 hPa | 0 mm | - | 274 W/m² | - |
| 1777592234 | 26.11° C | 10% | 1011.3 hPa | 0 mm | - | 266 W/m² | - |
| 1777591930 | 27.22° C | 10% | 1011.5 hPa | 0 mm | - | 238 W/m² | - |
| 1777591626 | 28.33° C | 10% | 1011.7 hPa | 0 mm | - | 333 W/m² | - |
| 1777591323 | 28.33° C | 10% | 1011.4 hPa | 0 mm | - | 344 W/m² | - |
| 1777591019 | 27.78° C | 10% | 1011.5 hPa | 0 mm | - | 365 W/m² | - |
| 1777590714 | 26.67° C | 10% | 1011.6 hPa | 0 mm | - | 424 W/m² | - |
| 1777590410 | 26.67° C | 10% | 1011.6 hPa | 0 mm | - | 429 W/m² | - |
| 1777590108 | 26.67° C | 10% | 1011.5 hPa | 0 mm | - | 498 W/m² | - |
| 1777589804 | 26.67° C | 10% | 1011.9 hPa | 0 mm | - | 537 W/m² | - |
| 1777589504 | 26.67° C | 10% | 1011.8 hPa | 0 mm | - | 549 W/m² | - |
| 1777589198 | 27.22° C | 10% | 1011.8 hPa | 0 mm | - | 562 W/m² | - |
| 1777588895 | 26.67° C | 10% | 1012.1 hPa | 0 mm | - | 557 W/m² | - |
| 1777588591 | 27.78° C | 10% | 1012.2 hPa | 0 mm | - | 567 W/m² | - |
| 1777588286 | 27.22° C | 10% | 1012 hPa | 0 mm | - | 519 W/m² | - |
| 1777587982 | 26.67° C | 10% | 1012.3 hPa | 0 mm | - | 482 W/m² | - |
| 1777587678 | 27.22° C | 10% | 1012.3 hPa | 0 mm | - | 457 W/m² | - |
| 1777587377 | 27.78° C | 10% | 1012.3 hPa | 0 mm | - | 479 W/m² | - |
| 1777587074 | 27.22° C | 10% | 1012.3 hPa | 0 mm | - | 522 W/m² | - |
* Rain latest hour (hover to see other rain measurements)
** Current wind speed in m/s (hover to see current wind gust speed)